This is the latest recevied weather packets stored in our database for station/object KC1TEM-13. If no packets are shown the sender has not sent any weather packets the latest 10 day(s).
| Time | Temp. | Humidity | Pressure | Rain* | Wind** | Luminosity | Snow |
|---|---|---|---|---|---|---|---|
| 1777933803 | 21.67° C | 29% | 1006.2 hPa | 0 mm | - | 43 W/m² | - |
| 1777933500 | 21.67° C | 29% | 1006.2 hPa | 0 mm | - | 49 W/m² | - |
| 1777933198 | 21.67° C | 28% | 1006.1 hPa | 0 mm | - | 44 W/m² | - |
| 1777932895 | 21.67° C | 28% | 1006.1 hPa | 0 mm | - | 55 W/m² | - |
| 1777932592 | 21.67° C | 29% | 1006.1 hPa | 0 mm | - | 66 W/m² | - |
| 1777932288 | 21.67° C | 28% | 1006.1 hPa | 0 mm | - | 73 W/m² | - |
| 1777931985 | 21.67° C | 28% | 1006.1 hPa | 0 mm | - | 81 W/m² | - |
| 1777931682 | 22.22° C | 27% | 1006.3 hPa | 0 mm | - | 74 W/m² | - |
| 1777931379 | 22.22° C | 27% | 1006 hPa | 0 mm | - | 59 W/m² | - |
| 1777931075 | 22.22° C | 27% | 1006.2 hPa | 0 mm | - | 88 W/m² | - |
| 1777930772 | 22.78° C | 26% | 1006.2 hPa | 0 mm | - | 65 W/m² | - |
| 1777930467 | 23.33° C | 26% | 1006.3 hPa | 0 mm | - | 228 W/m² | - |
| 1777930165 | 23.33° C | 26% | 1006.3 hPa | 0 mm | - | 80 W/m² | - |
| 1777929861 | 23.33° C | 27% | 1005.9 hPa | 0 mm | - | 261 W/m² | - |
| 1777929559 | 23.33° C | 25% | 1006.1 hPa | 0 mm | - | 275 W/m² | - |
| 1777929255 | 23.33° C | 25% | 1005.9 hPa | 0 mm | - | 300 W/m² | - |
| 1777928952 | 23.33° C | 27% | 1006 hPa | 0 mm | - | 334 W/m² | - |
| 1777928649 | 22.78° C | 26% | 1006.1 hPa | 0 mm | - | 379 W/m² | - |
| 1777928346 | 22.22° C | 26% | 1005.9 hPa | 0 mm | - | 376 W/m² | - |
| 1777928044 | 22.78° C | 27% | 1006.1 hPa | 0 mm | - | 124 W/m² | - |
| 1777927742 | 23.33° C | 26% | 1006.2 hPa | 0 mm | - | 193 W/m² | - |
| 1777927440 | 22.78° C | 27% | 1006.1 hPa | 0 mm | - | 471 W/m² | - |
| 1777927139 | 22.22° C | 26% | 1006 hPa | 0 mm | - | 135 W/m² | - |
| 1777926836 | 22.78° C | 26% | 1006.2 hPa | 0 mm | - | 148 W/m² | - |
| 1777926532 | 22.22° C | 27% | 1006.4 hPa | 0 mm | - | 159 W/m² | - |
* Rain latest hour (hover to see other rain measurements)
** Current wind speed in m/s (hover to see current wind gust speed)